Simultaneous Nadir Overpasses (SNOs) Predictions

Prediction of SNOs near equator between NOAA-19 and NPP Satellite Orbit:

Table of predicted SNOs near equator for the next 14.0 days since TLE Epoch: 1/8/2012
Index Date (NOAA-19) Time (NOAA-19) NOAA-19 Lat,Lon Date (NPP) Time (NPP) NPP Lat,Lon Distance(km) Time Diff (sec)
1 01/15/2012 17:35:18 29.96, -65.99 01/15/2012 17:32:21 29.76, -66.93 93.23 177
2 01/15/2012 18:26:12 -29.94, 101.29 01/15/2012 18:23:02 -29.76, 100.40 88.05 190
3 01/15/2012 19:17:24 29.98, -91.52 01/15/2012 19:13:52 29.83, -92.32 79.22 212
4 01/15/2012 20:08:18 -29.97, 75.76 01/15/2012 20:04:33 -29.83, 75.01 74.05 225
5 01/15/2012 20:59:29 29.95,-117.03 01/15/2012 20:55:22 29.84,-117.70 65.34 247
6 01/15/2012 21:50:24 -30.00, 50.23 01/15/2012 21:46:03 -29.85, 49.63 60.10 261
7 01/15/2012 22:41:35 29.98,-142.56 01/15/2012 22:36:52 29.85,-143.08 51.30 283
8 01/15/2012 23:32:29 -29.96, 24.71 01/15/2012 23:27:33 -29.86, 24.25 46.10 296
9 01/16/2012 00:23:40 29.94,-168.08 01/16/2012 00:18:22 29.87,-168.45 37.33 318
10 01/16/2012 01:14:35 -29.99, -0.82 01/16/2012 01:09:04 -29.93, -1.14 32.12 331
11 01/16/2012 02:05:46 29.97, 166.39 01/16/2012 01:59:53 29.94, 166.15 23.44 353
12 01/16/2012 02:56:40 -29.96, -26.33 01/16/2012 02:50:34 -29.94, -26.52 18.40 366
13 01/16/2012 03:47:52 30.00, 140.86 01/16/2012 03:41:23 29.95, 140.77 9.75 389
14 01/16/2012 04:38:46 -29.98, -51.86 01/16/2012 04:32:04 -29.96, -51.90 4.52 402
15 01/16/2012 05:26:37 18.31, 118.37 01/16/2012 05:19:34 18.31, 118.37 0.85 423
16 01/16/2012 06:12:33 -0.96, -70.33 01/16/2012 06:05:19 -0.96, -70.32 0.69 434
17 01/16/2012 07:02:30 -3.46, 97.87 01/16/2012 06:54:54 -3.43, 97.95 9.56 456
18 01/16/2012 07:53:38 2.58, -95.05 01/16/2012 07:45:49 2.56, -94.91 15.60 469
19 01/16/2012 08:45:12 -1.33, 71.86 01/16/2012 08:37:00 -1.30, 72.10 26.51 492
20 01/16/2012 09:36:18 0.57,-121.03 01/16/2012 09:27:54 0.49,-120.75 32.48 504
21 01/16/2012 10:27:52 0.69, 45.89 01/16/2012 10:19:05 0.77, 46.26 43.23 527
22 01/16/2012 11:19:00 -1.56,-147.03 01/16/2012 11:10:00 -1.64,-146.60 49.30 540
23 01/16/2012 12:10:33 2.76, 19.89 01/16/2012 12:01:11 2.90, 20.41 60.10 562
24 01/16/2012 13:09:14 -29.99
